www.pogodaiklimat.ru
ПОГОДА в Пршимде

Архив погоды в Пршимде (Чехия)

Время
(UTC), дата
16 13.01
17 13.01
18 13.01
19 13.01
20 13.01
21 13.01
22 13.01
23 13.01
00 14.01
01 14.01
02 14.01
03 14.01
04 14.01
05 14.01
06 14.01
07 14.01
08 14.01
09 14.01
10 14.01
11 14.01
12 14.01
13 14.01
14 14.01
15 14.01
16 14.01
17 14.01
18 14.01
19 14.01
20 14.01
21 14.01
22 14.01
23 14.01
00 15.01
01 15.01
02 15.01
03 15.01
04 15.01
05 15.01
06 15.01
07 15.01
08 15.01
09 15.01
10 15.01
11 15.01
12 15.01
13 15.01
14 15.01
15 15.01
16 15.01
17 15.01
18 15.01
19 15.01
20 15.01
21 15.01
22 15.01
23 15.01
00 16.01
01 16.01
02 16.01
03 16.01
04 16.01
05 16.01
06 16.01
07 16.01
08 16.01
09 16.01
10 16.01
11 16.01
12 16.01
13 16.01
14 16.01
15 16.01
16 16.01
17 16.01
18 16.01
19 16.01
20 16.01
21 16.01
22 16.01
23 16.01
00 17.01
01 17.01
02 17.01
03 17.01
04 17.01
05 17.01
06 17.01
07 17.01
08 17.01
09 17.01
10 17.01
11 17.01
12 17.01
13 17.01
14 17.01
15 17.01
16 17.01
17 17.01
18 17.01
19 17.01
20 17.01
21 17.01
22 17.01
23 17.01
00 18.01
01 18.01
02 18.01
03 18.01
04 18.01
05 18.01
06 18.01
07 18.01
08 18.01
09 18.01
10 18.01
11 18.01
12 18.01
13 18.01
14 18.01
15 18.01
16 18.01
17 18.01
18 18.01
19 18.01
20 18.01
21 18.01
22 18.01
23 18.01
00 19.01
01 19.01
02 19.01
03 19.01
04 19.01
05 19.01
06 19.01
07 19.01
08 19.01
09 19.01
10 19.01
11 19.01
12 19.01
13 19.01
14 19.01
15 19.01
16 19.01
17 19.01
18 19.01
19 19.01
20 19.01
21 19.01
22 19.01
23 19.01
00 20.01
01 20.01
02 20.01
03 20.01
04 20.01
05 20.01
06 20.01
07 20.01
08 20.01
09 20.01
10 20.01
11 20.01
12 20.01
13 20.01
14 20.01
15 20.01
16 20.01
Ветер
(напр.,м/с)
Видим. Явления Облачность Т
(С)
Тd
(С)
f
(%)
Тe
(С)
Тes
(С)
Комфортность P
(гПа)
Po
(гПа)
Тmin
(С)
Tmax
(С)
R
(мм)
R24
(мм)
S
(см)
З 7
{11}
1500 м в посл. час снег н/о -2.9 -3.2 98 -11 -11 1040.9 947.9
З 7
{11}
1000 м слаб. ливневой снег н/о -2.8 -3.1 98 -11 -11 1040.8 947.9
З 7
{13}
700 м переохл. туман [диам. изморози 7 мм] ?/? -2.7 -3.0 98 -11 -11 1040.7 947.8 -2.7
З 8
{11}
500 м переохл. туман ?/? -2.8 -3.1 98 -11 -11 1039.9 947.1
З 7
{11}
700 м переохл. туман ?/? -2.9 -3.2 98 -11 -11 1039.8 946.9
З 7
{12}
900 м слаб. ливневой снег н/о -3.1 -3.4 98 -11 -11 1039.7 946.8 0.1
З 6
{11}
900 м туман н/о -3.2 -3.5 98 -11 -11 1039.5 946.6
З 6 900 м туман н/о -3.3 -3.6 98 -11 -11 1039.5 946.5
З 6
{12}
1100 м дымка н/о -3.3 -3.7 97 -11 -11 1038.5 945.6
З 7 1300 м слаб. ливневой снег н/о -3.5 -3.9 97 -12 -12 1038.1 945.2
З 7
{11}
1500 м слаб. ливневой снег н/о -3.3 -3.7 97 -11 -11 1037.4 944.6
З 7
{11}
2600 м в посл. час снег н/о -3.4 -3.8 97 -12 -12 1037.0 944.2 0.1
З 7
{11}
2100 м в посл. час снег н/о -3.5 -3.9 97 -12 -12 1036.7 943.9
З 7 1400 м дымка н/о -3.8 -4.2 97 -12 -12 1036.4 943.5
З 6
{11}
2000 м дымка [диам. изморози 13 мм] 10/10 60 м
[St]
-3.6 -4.0 97 -11 -11 1036.3 943.5 -3.8 9
З 7 2000 м дымка 10/10 60 м
[St]
-4.0 -4.4 97 -12 -12 1036.2 943.3
З 7
{11}
1500 м дымка 10/10 60 м
[St]
-3.9 -4.3 97 -12 -12 1036.2 943.3
З 6
{11}
1500 м дымка [диам. изморози 14 мм] 9/9 60 м
[St]
-3.4 -3.8 97 -11 -11 1035.8 943.1 0.1
З 6 1200 м дымка 10/10 60 м
[St]
-2.9 -3.3 97 -10 -10 1035.5 943.0
З 7-12
{12}
1000 м дымка 9/9 60 м
[St]
-2.4 -2.6 99 -10 -10 1034.7 942.5
З 7-12
{12}
1200 м дымка [диам. изморози 15 мм] 9/9 60 м
[St]
-2.1 -2.4 98 -10 -10 1034.0 941.9
З 7
{12}
1500 м дымка 9/9 60 м
[St]
-1.9 -2.2 98 -10 -10 1033.4 941.4
З 7
{12}
1200 м дымка 10/10 60 м
[St]
-1.9 -2.2 98 -10 -10 1033.5 941.5
З 6
{12}
1000 м дымка [диам. изморози 16 мм] 10/10 60 м
[St]
-2.2 -2.5 98 -10 -10 1033.7 941.6 0.1
З 7 3200 м в посл. час туман н/о -2.3 -2.6 98 -10 -10 1033.6 941.5
З 6 1800 м дымка н/о -2.5 -2.8 98 -10 -10 1034.1 941.9
З 6
{12}
2000 м дымка [диам. изморози 17 мм] 9/9 60 м
[St]
-2.4 -2.7 98 -10 -10 1034.1 941.9 -1.8
З 6 1500 м дымка 9/9 60 м
[St]
-2.8 -3.1 98 -10 -10 1033.8 941.5
З 4 1500 м дымка 10/10 60 м
[St]
-2.4 -2.7 98 -9 -9 1034.1 941.9
СЗ 2 400 м туман н/о -1.2 -1.5 98 -5 -5 1034.0 942.2 0.1
З 2 300 м туман н/о -1.2 -1.3 99 -5 -5 1034.1 942.3
З 2 700 м туман н/о -1.6 -1.7 99 -6 -6 1034.0 942.1
З 1 2200 м в посл. час туман н/о -1.0 -1.1 99 -3 -3 1033.6 941.9
З 1 6000 м дымка н/о -0.8 -0.9 99 -3 -3 1033.2 941.6
З 1 5000 м дымка н/о -0.7 -0.8 99 -3 -3 1032.6 941.1
СЗ 1 27 км н/о -0.7 -1.0 98 -3 -3 1032.1 940.7 0.1
С 2 35 км н/о -0.9 -1.2 98 -5 -5 1032.2 940.7
СВ 1 28 км н/о -1.2 -1.5 98 -4 -4 1032.0 940.4
С 1 35 км [диам. изморози 18 мм] 10/10 270 м
[Sc]
-1.4 -1.9 96 -4 -4 1031.9 940.2 -2.8 8
СВ 1 40 км 9/9 270 м
[Sc]
-1.6 -2.2 96 -4 -4 1032.0 940.3
З 1 40 км 3/1 300 м
[Sc Ci fib]
-2.1 -2.5 97 -5 -4 1032.1 940.2
З 1 35 км [диам. изморози 18 мм] 1/1 400 м
[Sc Ci fib]
-1.8 -2.2 97 -4 -3 1032.2 940.4 0.1
СВ 1 40 км 4/3 300 м
[Cu Sc Ci fib]
-0.5 -1.2 95 -3 -1 1032.0 940.6
В 1 35 км 6/6 330 м
[Cu Sc Ci fib]
-0.7 -1.5 94 -3 -2 1031.4 940.0
В 2 35 км 4/4 360 м
[Cu Sc Ci fib]
-0.6 -1.3 95 -5 -3 1030.8 939.5
В 2 30 км 1/1 330 м
[Cu Sc Ci fib]
-0.5 -1.3 94 -4 -3 1029.9 938.7
В 3 40 км 1/1 330 м
[Cu Sc Ci fib]
-0.7 -1.4 95 -6 -5 1029.5 938.3
В 2 45 км 1/0
[Ci fib]
-1.4 -1.7 98 -5 -5 1029.2 937.8 0.1
В 2 6000 м дымка н/о -2.1 -2.4 98 -6 -6 1029.3 937.6
В 1 11 км н/о -2.1 -2.6 96 -4 -4 1029.1 937.5
ЮВ 2 20 км ясно -1.5 -2.3 94 -6 -6 1029.0 937.6 -0.1
ЮВ 2 19 км ясно -2.1 -2.7 96 -6 -6 1029.0 937.4
ЮВ 1 14 км ясно -3.2 -3.6 97 -6 -6 1028.2 936.3
ЮВ 1 5000 м дымка н/о -2.9 -3.3 97 -5 -5 1028.2 936.4 0.1
З 1 7000 м дымка н/о -3.0 -3.4 97 -5 -5 1028.0 936.2
З 2 300 м туман н/о -5.5 -5.7 98 -10 -10 1028.7 936.0
З 4 3500 м дымка н/о -4.6 -5.0 97 -11 -11 1027.8 935.4
З 5 1500 м в посл. час туман н/о -3.6 -4.0 97 -11 -11 1027.1 935.1
З 4 2000 м дымка н/о -3.2 -3.6 97 -10 -10 1026.4 934.6
З 3 1000 м в посл. час туман н/о -3.2 -3.5 98 -9 -9 1025.9 934.2 0.1
З 4 1500 м в посл. час туман н/о -3.0 -3.3 98 -9 -9 1025.2 933.6
З 4 1700 м в посл. час туман н/о -2.8 -3.1 98 -9 -9 1024.9 933.4
З 4 700 м переохл. туман [диам. изморози 5 мм] ?/? -2.8 -3.0 99 -9 -9 1024.6 933.1 -5.5 7
З 4 800 м переохл. туман ?/? -2.7 -3.0 98 -9 -9 1024.6 933.2
З 6 900 м переохл. туман ?/? -2.8 -3.1 98 -10 -10 1025.0 933.5
З 5
{12}
900 м переохл. туман [диам. сложн. отлож. 7 мм] ?/? -3.0 -3.3 98 -10 -10 1024.8 933.2 0.1
З 7-12
{11}
800 м переохл. туман ?/? -2.8 -3.2 97 -11 -11 1024.5 933.0
З 6-11
{12}
700 м переохл. туман ?/? -3.1 -3.4 98 -11 -11 1024.7 933.1
З 6-11
{12}
600 м переохл. туман [диам. сложн. отлож. 8 мм] ?/? -3.0 -3.4 97 -11 -11 1024.8 933.2
З 6-11
{14}
600 м переохл. туман ?/? -2.7 -3.0 98 -10 -10 1024.5 933.1
З 8-14
{17}
2000 м снежные зёрна {туман} 10/10 60 м
[Frnb]
-3.1 -3.5 97 -12 -12 1025.0 933.4
З 6-12
{17}
1500 м в посл. час снег {туман} [диам. сложн. отлож. 10 мм] 10/10 60 м
[Frnb]
-3.2 -3.6 97 -11 -11 1026.3 934.5 0.1
З 5
{12}
900 м слаб. снег н/о -3.0 -3.4 97 -10 -10 1026.8 935.1
З 6-11
{11}
2100 м слаб. снег н/о -2.9 -3.2 98 -10 -10 1027.8 936.0
З 6-11
{17}
1200 м в посл. час снег [диам. сложн. отлож. 11 мм] 10/10 60 м
[Frnb]
-2.8 -3.1 98 -10 -10 1028.0 936.2 -2.7 0.1
З 5
{11}
800 м переохл. туман ?/? -2.5 -2.8 98 -9 -9 1028.4 936.7
З 6 300 м переохл. туман ?/? -2.3 -2.6 98 -10 -10 1028.8 937.1
З 5
{11}
300 м слаб. снег н/о -2.1 -2.4 98 -9 -9 1029.1 937.5 0.1
З 5 300 м слаб. ливневой снег н/о -1.9 -2.2 98 -9 -9 1029.3 937.7
З 6-11
{11}
300 м туман н/о -1.7 -1.9 99 -9 -9 1029.2 937.7
З 6
{11}
300 м туман н/о -1.6 -1.9 98 -9 -9 1028.4 937.0
З 7-12
{13}
200 м туман н/о -1.5 -1.6 99 -9 -9 1028.2 936.8
З 7-12
{14}
300 м туман н/о -1.4 -1.5 99 -9 -9 1027.9 936.6
З 6-12
{14}
200 м туман н/о -1.3 -1.4 99 -9 -9 1027.6 936.4 0.1
З 8-14
{15}
700 м слаб. ливневой снег н/о -1.2 -1.4 99 -9 -9 1026.9 935.8
З 8-14
{17}
300 м слаб. ливневой снег н/о -1.0 -1.1 99 -9 -9 1027.2 936.1
З 7-13
{17}
300 м переохл. туман [диам. сложн. отлож. 15 мм] ?/? -0.9 -1.0 99 -9 -9 1026.9 935.9 -2.8 0.0 0.1 7
З 8-15
{14}
400 м переохл. туман ?/? -0.9 -1.0 99 -9 -9 1026.6 935.6
З 8-14
{15}
900 м переохл. туман ?/? -0.8 -0.9 99 -9 -9 1026.5 935.5
З 7-15
{18}
1500 м слаб. снег {туман} [диам. сложн. отлож. 15 мм] 10/10 60 м
[Frnb]
-0.9 -1.0 99 -9 -9 1027.9 936.8 0.1
З 7-15
{13}
5000 м в посл. час снег 10/10 90 м
[St]
-0.7 -0.9 99 -8 -8 1027.9 936.8
З 9-15
{17}
2000 м слаб. дождь со снегом 10/10 90 м
[Frnb]
-0.7 -0.8 99 -9 -9 1027.2 936.2
З 9-16
{18}
2000 м слаб. дождь со снегом [диам. сложн. отлож. 16 мм] 10/10 90 м
[Frnb]
-0.7 -0.8 99 -9 -9 1026.5 935.6 0.3
З 9-15
{15}
1200 м слаб. дождь со снегом 10/10 60 м
[Frnb]
-0.6 -0.7 99 -9 -9 1026.6 935.7
З 8-14
{17}
600 м слаб. снег {дождь} ?/? -0.6 -0.7 99 -9 -9 1026.8 935.9
З 8-14
{17}
400 м слаб. снег {дождь} [диам. сложн. отлож. 17 мм] ?/? -0.5 -0.5 100 -8 -8 1027.7 936.7 0.1
З 7-12
{15}
200 м слаб. ливневой снег н/о -0.5 -0.6 99 -8 -8 1028.4 937.4
З 7-13
{13}
200 м слаб. дождь н/о -0.4 -0.5 99 -8 -8 1029.1 938.0
З 6
{17}
100 м слаб. снег [диам. сложн. отлож. 18 мм] ?/? -0.2 -0.2 100 -7 -7 1030.4 939.3 -0.2 2
З 3
{12}
200 м снег {туман} ?/? -0.4 -0.5 99 -5 -5 1032.1 940.8
З 3 24 км в посл. час снег {туман} 10/10 30 м
[Sc]
-0.6 -0.7 99 -6 -6 1033.2 941.7
З 3
{12}
3800 м дымка н/о -1.0 -1.2 99 -6 -6 1034.1 942.4 0.1
З 3 4600 м в посл. час туман н/о -1.1 -1.1 100 -6 -6 1034.5 942.7
СЗ 3 17 км н/о -1.8 -2.2 97 -7 -7 1034.9 942.8
З 2
{12}
11 км н/о -1.8 -2.1 98 -6 -6 1035.3 943.2 2
З 3 7000 м дымка н/о -1.7 -1.8 99 -7 -7 1035.6 943.5
З 2 2300 м дымка н/о -1.6 -1.9 98 -6 -6 1036.0 943.9
З 2 12 км н/о -1.8 -2.1 98 -6 -6 1036.1 943.9 0.1
З 3 10 км н/о -2.2 -2.4 99 -8 -8 1036.3 944.0
З 2 16 км в посл. час снег н/о -2.8 -3.4 96 -7 -7 1037.0 944.4
СЗ 2 30 км [диам. сложн. отлож. 18 мм] 9/9 570 м
[Sc]
-2.9 -3.6 95 -7 -7 1038.0 945.3 -3.0 2 4.0 11
З 2 28 км 9/9 600 м
[Sc]
-2.9 -3.4 96 -7 -7 1038.2 945.5
З 3 30 км 9/9 630 м
[Sc]
-2.5 -2.8 98 -8 -8 1038.7 946.1
З 4 25 км [диам. сложн. отлож. 18 мм] 9/9 630 м
[Sc]
-1.8 -2.1 98 -8 -8 1038.7 946.3 0.1
З 3 24 км 10/10 90 м
[Sc]
-1.1 -1.3 99 -6 -6 1038.9 946.7
З 3 6000 м слаб. снег 10/9 30 м
[Frnb]
-0.5 -0.7 99 -6 -5 1038.8 946.8
З 3 1500 м снежные зёрна [диам. сложн. отлож. 18 мм] 10/10 30 м
[Frnb]
-0.4 -0.5 99 -5 -5 1038.4 946.5 0.0
З 2 600 м слаб. снег {туман} ?/? -0.1 -0.2 99 -4 -4 1038.1 946.3
З 2 300 м слаб. снег {туман} ?/? -0.1 -0.3 99 -4 -4 1038.2 946.4
З 2 300 м слаб. снег {туман} [диам. сложн. отлож. 14 мм] ?/? -0.2 -0.3 99 -4 -4 1038.2 946.4 0.1
СЗ 2 11 км в посл. час дождь н/о -0.7 -1.0 98 -5 -5 1038.5 946.5
З 1 8000 м в посл. час дождь н/о -0.8 -0.9 99 -3 -3 1038.7 946.6
З 1 60 км [диам. сложн. отлож. 14 мм] 10/9 330 м
[St]
-0.9 -1.1 99 -3 -3 1038.7 946.6 -0.1 0.3
З 1 55 км 10/10 180 м
[St]
-1.0 -1.2 99 -3 -3 1038.2 946.1
З 1 55 км 10/10 180 м
[St]
-1.0 -1.3 98 -3 -3 1038.3 946.2
З 1 15 км н/о -1.0 -1.3 98 -3 -3 1037.6 945.6 0.1
З 1 17 км н/о -1.1 -1.4 98 -3 -3 1037.9 945.8
З 1 12 км н/о -1.3 -1.6 98 -4 -4 1037.1 945.0
СЗ 1 2600 м дымка н/о -1.4 -1.5 99 -4 -4 1036.6 944.5
штиль 0 1900 м в посл. час туман н/о -1.5 -1.8 98 -3 -3 1036.0 943.9
В 1 400 м туман н/о -1.9 -2.2 98 -4 -4 1034.8 942.7
ЮВ 1 100 м туман н/о -2.1 -2.2 99 -5 -5 1033.9 941.8 0.1
В 1 100 м туман н/о -2.2 -2.2 100 -5 -5 1033.3 941.3
ЮВ 1 200 м туман н/о -2.6 -2.9 98 -5 -5 1032.6 940.5
Ю 1 300 м переохл. туман [диам. сложн. отлож. 15 мм] ?/? -2.7 -3.0 98 -5 -5 1032.1 940.0 -2.8 0.3 9
ЮЗ 2 600 м переохл. туман ?/? -3.2 -3.5 98 -8 -8 1031.3 939.1
З 3 500 м переохл. туман ?/? -3.0 -3.4 97 -8 -8 1030.7 938.6
З 5 700 м переохл. туман [диам. сложн. отлож. 16 мм] ?/? -2.8 -3.2 97 -10 -10 1029.8 937.9 0.1
З 3 7000 м в посл. час туман 8/8 30 м
[St]
-2.0 -2.4 97 -7 -7 1028.9 937.3
З 2 26 км 1/1 120 м
[St Ci fib]
-0.8 -1.3 96 -5 -2 1027.4 936.3
З 4 28 км {туман} [диам. сложн. отлож. 8 мм] 6/6 210 м
[St Ci fib]
-1.1 -1.4 98 -7 -6 1026.4 935.3
З 3 28 км 9/9 180 м
[St]
-1.2 -1.6 97 -6 -6 1025.0 934.0
З 4 10 км 10/10 60 м
[St]
-2.3 -2.7 97 -8 -8 1024.8 933.5
З 6 6000 м дымка [диам. сложн. отлож. 7 мм] 10/10 30 м
[St]
-2.8 -3.2 97 -10 -10 1024.0 932.6 0.1
З 7-14
{14}
3600 м в посл. час снег н/о -2.6 -3.0 97 -11 -11 1023.1 931.8 0.1
З 7-14
{14}
4900 м дымка н/о -2.1 -2.4 98 -10 -10 1022.0 931.0 0.1
З 9-16
{16}
15 км снежные зёрна [диам. сложн. отлож. 7 мм] 10/10 210 м
[Frnb]
-1.7 -2.0 98 -10 -10 1020.9 930.1 -0.4 0.0
З 7-12
{14}
15 км снежные зёрна 10/10 150 м
[Frnb]
-1.6 -1.9 98 -9 -9 1021.1 930.3
З 7-12
{14}
15 км снежные зёрна 10/10 210 м
[Frnb]
-1.4 -1.7 98 -9 -9 1020.4 929.8
З 8-15
{18}
2800 м слаб. переохл. морось (гололёд) н/о -1.3 -1.6 98 -9 -9 1020.3 929.7 0.1
З 6-12
{16}
7000 м слаб. ливневой снег н/о -1.4 -1.7 98 -9 -9 1021.0 930.3
З 7-12
{16}
7000 м в посл. час снег н/о -1.4 -1.7 98 -9 -9 1020.5 929.9
З 7-15
{18}
1500 м слаб. снег н/о -1.4 -1.6 99 -9 -9 1020.8 930.1 0.2
З 6
{12}
500 м слаб. ледяной дождь н/о -1.3 -1.4 99 -9 -9 1020.7 930.1
З 6-11
{13}
400 м снег н/о -1.2 -1.3 99 -8 -8 1020.6 930.0
З 6-11
{13}
500 м слаб. переохл. морось (гололёд) н/о -1.2 -1.4 99 -8 -8 1020.4 929.8 0.1
З 6
{11}
600 м слаб. снег н/о -1.2 -1.3 99 -8 -8 1020.3 929.7
З 6 4900 м слаб. переохл. дождь (гололёд) н/о -1.2 -1.3 99 -8 -8 1020.0 929.5
З 7
{13}
30 км [диам. сложн. отлож. 7 мм] 10/10 240 м
[Sc]
-1.7 -2.1 97 -9 -9 1020.2 929.5 -1.7 2 1.8 11
З 6-13
{13}
30 км 10/9 150 м
[Sc]
-1.6 -2.0 97 -9 -9 1019.9 929.2
З 8-16
{14}
22 км слаб. снег 10/10 210 м
[Sc]
-1.4 -1.8 97 -10 -10 1019.8 929.2
З 8-15
{16}
3000 м слаб. снег [диам. сложн. отлож. 7 мм] 10/10 90 м
[Frnb]
-1.3 -1.6 98 -9 -9 1019.9 929.3 0.1
З 7-15
{15}
1500 м слаб. снег 10/10 90 м
[Frnb]
-1.1 -1.4 98 -9 -9 1020.7 930.1
З 4-9
{14}
1500 м снег {ливн. снег} 10/9 90 м
[Frnb]
-2.7 -3.2 96 -9 -9 1021.1 930.0
З 4-9
{16}
60 км в посл. час снег {ливн. снег} [диам. сложн. отлож. 7 мм] 10/10 480 м
[Sc]
-2.8 -3.8 93 -9 -9 1021.1 929.9 2
З 3 60 км 8/8 500 м
[Cu Sc]
-2.7 -4.0 91 -8 -8 1021.1 930.0
З 4 35 км слаб. ливневой снег 8/8 720 м
[Cu med, cong]
-3.5 -4.8 91 -10 -10 1021.8 930.3
З 6 40 км в посл. час ливневой снег [диам. сложн. отлож. 7 мм] 4/4 480 м
[Cu Sc]
-3.7 -5.2 89 -11 -11 1022.5 930.9 0.1
З 6-11
{11}
30 км слаб. ливневой снег н/о -4.2 -5.6 90 -12 -12 1022.7 930.9
Местоположение метеостанции Пршимда (Чехия): широта 49.67 долгота 12.67 высота над уровнем моря 748 м.
В архиве по умолчанию представлена погода в Пршимде за последнюю неделю. Архивные данные за месяц целиком и за предыдущие месяцы, начиная с января 2011 года, Вы можете получить, выбрав интересующий диапазон дат из раскрывающегося списка и нажав кнопку "Найти!".
*Определитесь, кто Вы:
Внимание! Время в таблицах - всемирное. Для получения местного времени необходимо прибавить поправку, которая равна 1 ч.
Смотрите также архив погоды в соседних городах и на ближайших метеорологических станциях:
Партнеры нашего сайта:      
Пояснения к столбцам:
  • Ветер - указаны скорость ветра в м/с - средняя за 10 мин, порывы в срок и между сроками (в фигурных скобках) и направление, откуда дует ветер: С - северный,
  • СВ - северо-восточный, В - восточный, ЮВ - юго-восточный, Ю - южный, ЮЗ - юго-западный, З - западный, СЗ - северо-западный.
  • Видимость - горизонтальная дальность видимости в метрах или километрах. При видимости от 1 до 10 км при отсутствии осадков обычно наблюдается дымка, при ухудшении видимости до 1 км и менее - туман. В сухую погоду видимость может ухудшаться дымом, пылью или мглою.
  • Явления - указаны атмосферные явления, наблюдавшиеся в срок или в последний час перед сроком; фигурными скобками обозначены явления, наблюдавшиеся между сроками (за 1-3 часа до срока); квадратными скобками обозначены град или гололедные отложения с указанием их диаметра в мм.
  • Облачность - указаны через наклонную черту общая и нижняя облачность в баллах и высота нижней границы облаков в метрах; квадратными скобками обозначены формы облаков: Ci - перистые, Cs - перисто-слоистые, Cc - перисто-кучевые, Ac - высококучевые, As - высокослоистые, Sc - слоисто-кучевые, Ns - слоисто-дождевые, Cu - кучевые, Cb - кучево-дождевые. Подробнее классификацию облаков см. в Атласе облаков (PDF).
  • T - Температура воздуха - температура, измеренная на высоте 2 м над землей.
  • Td - Температура точки росы - температура, при понижении до которой содержащийся в воздухе водяной пар достигнет насыщения.
  • f - Относительная влажность воздуха - влажноcть воздуха, измеренная на высоте 2 м над землей.
  • Te - Эффективная температура - температура, которую ощущает одетый по сезону человек в тени. Характеристика душности погоды. При расчете учитывается влияние влажности воздуха и скорости ветра на теплоощущения человека.
  • Tes - Эффективная температура на солнце - температура, которую ощущает человек, с поправкой на солнечный нагрев. Характеристика знойности погоды. Зависит от высоты солнца над горизонтом, облачности и скорости ветра. Ночью, в пасмурную погоду, а также при ветре 12 м/с и более поправка равна нулю.
  • P - Атмосферное давление - приведенное к уровню моря атмосферное давление.
  • Po - Атмосферное давление - измеренное на уровне метеостанции атмосферное давление.
  • Tmin - Минимальная температура - минимум температуры воздуха на высоте 2 м над землей.
  • Tmax - Максимальная температура - максимум температуры воздуха на высоте 2 м над землей.
  • R - Количество осадков - Количество выпавших осадков за период времени, мм. При наведении курсора мыши на число - период времени, за который выпало указанное количество осадков.
  • R24 - Количество осадков - Количество выпавших осадков за 24 часа, мм.
  • S - Снежный покров - Высота снежного покрова, см. При наведении курсора мыши на число - состояние снежного покрова и степень покрытия местности в баллах.